Location: Westminster
(33.3626°N, 96.4619°W)
Time: 21:22:02
(UTC+00:00)

OAO 3 Rocket - Pass Details

Date: 10 July 2022
Orbit: 627 x 681 km, 35.0° (Epoch: 14 August)

Event Time Altitude Azimuth Distance (km) Brightness Sun altitude
Exits shadow 09:50:37 15° 176° (S) 1,770 5.0 -16.9°
Drops below altitude 10° 09:51:58 10° 163° (SSE) 2,105 5.5 -16.7°
Sets 09:54:50 0° 148° (SSE) 3,014 6.5 -16.3°
